Kalaeloa, HI

11:34 PM HST on May 27, 2017 (GMT -1000)
Kalaeloa (John Rodgers Field)

Weather History for PHJR - December, 2012

Change the Weather History Date:

Friday, December 7, 2012

  Actual Average (PHHI) Record (PHHI)
Temperature  
Mean Temperature 76 °F -  
Max Temperature 82 °F 74 °F 80 °F (2013)
Min Temperature 69 °F 64 °F 58 °F (2010)
Cooling Degree Days 10    
Growing Degree Days 26 (Base 50)    
Moisture  
Dew Point 66 °F    
Average Humidity 76    
Maximum Humidity 90    
Minimum Humidity 58    
Precipitation  
Precipitation 0.00 in - - ()
Sea Level Pressure  
Sea Level Pressure 29.97 in    
Wind  
Wind Speed 2 mph (South)    
Max Wind Speed 9 mph    
Max Gust Speed -    
Visibility 10 miles    
Events      
Averages and records for this station are not official NWS values.
T = Trace of Precipitation, MM = Missing Value Source: NWS Daily Summary

Daily Weather History Graph

Daily Weather History Graph

Search for Another Location

Airport or City:

Trip Planner

Search our weather history database for the weather conditions in past years. The results will help you decide how hot, cold, wet, or windy it might be!

Date:

Astronomy

Dec. 07, 2012 Rise Set
Actual Time 6:57 AM HST 5:50 PM HST
Civil Twilight 6:33 AM HST 6:14 PM HST
Nautical Twilight 6:05 AM HST 6:42 PM HST
Astronomical Twilight 5:38 AM HST 7:09 PM HST
Moon 1:07 AM HST (12/7) 1:19 PM HST (12/7)
Length of Visible Light 11h 41m
Length of Day
10h 52m
Last Quarter, 36% of the Moon is Illuminated
Dec 7
Last Quarter
Dec 12
New
Dec 19
First Quarter
Dec 28
Full
Jan 4
Last Quarter

Hourly Weather History & Observations

Time (HST) Temp. Heat Index Dew Point Humidity Pressure Visibility Wind Dir Wind Speed Gust Speed Precip Events Conditions
12:02 AM 69.8 °F - 66.2 °F 88% 29.96 in 10.0 mi Calm Calm - N/A   Mostly Cloudy
12:17 AM 69.8 °F - 66.2 °F 88% 29.96 in 10.0 mi Calm Calm - N/A   Scattered Clouds
12:53 AM 70.0 °F - 64.9 °F 84% 29.98 in 10.0 mi Calm Calm - N/A   Overcast
1:34 AM 69.8 °F - 64.4 °F 83% 29.95 in 10.0 mi Calm Calm - 0.00 in   Mostly Cloudy
1:42 AM 69.8 °F - 64.4 °F 83% 29.95 in 10.0 mi Calm Calm - 0.00 in   Scattered Clouds
1:53 AM 70.0 °F - 64.9 °F 84% 29.96 in 10.0 mi Calm Calm - 0.00 in   Partly Cloudy
2:53 AM 69.1 °F - 64.9 °F 87% 29.96 in 10.0 mi Calm Calm - N/A   Clear
3:53 AM 70.0 °F - 66.0 °F 87% 29.96 in 10.0 mi Calm Calm - N/A   Mostly Cloudy
4:53 AM 70.0 °F - 66.0 °F 87% 29.96 in 10.0 mi Calm Calm - N/A   Partly Cloudy
5:53 AM 69.1 °F - 66.0 °F 90% 29.99 in 10.0 mi Calm Calm - N/A   Clear
6:53 AM 70.0 °F - 66.0 °F 87% 30.00 in 10.0 mi Calm Calm - N/A   Scattered Clouds
7:53 AM 72.0 °F - 66.9 °F 84% 30.02 in 10.0 mi Calm Calm - N/A   Partly Cloudy
8:53 AM 77.0 °F - 68.0 °F 74% 30.05 in 10.0 mi Calm Calm - N/A   Partly Cloudy
9:09 AM 77.0 °F - 68.0 °F 74% 30.03 in 10.0 mi Calm Calm - N/A   Mostly Cloudy
9:53 AM 81.0 °F 84.1 °F 69.1 °F 67% 30.05 in 10.0 mi SW 6.9 mph - N/A   Mostly Cloudy
10:53 AM 82.0 °F 84.1 °F 66.0 °F 58% 30.04 in 10.0 mi SW 8.1 mph - N/A   Mostly Cloudy
11:17 AM 82.4 °F 85.4 °F 68.0 °F 62% 30.02 in 10.0 mi SW 9.2 mph - N/A   Mostly Cloudy
11:53 AM 81.0 °F 83.8 °F 68.0 °F 65% 30.02 in 10.0 mi WSW 9.2 mph - N/A   Scattered Clouds
12:53 PM 82.0 °F 85.5 °F 69.1 °F 65% 29.98 in 9.0 mi South 8.1 mph - N/A   Partly Cloudy
1:53 PM 81.0 °F 83.8 °F 68.0 °F 65% 29.94 in 9.0 mi SSW 6.9 mph - N/A   Overcast
2:53 PM 79.0 °F - 68.0 °F 69% 29.93 in 8.0 mi South 5.8 mph - N/A   Clear
3:31 PM 78.8 °F - 68.0 °F 69% 29.89 in 8.0 mi SSE 6.9 mph - N/A   Partly Cloudy
3:53 PM 79.0 °F - 68.0 °F 69% 29.90 in 8.0 mi SE 6.9 mph - N/A   Partly Cloudy
4:53 PM 77.0 °F - 69.1 °F 76% 29.88 in 9.0 mi East 8.1 mph - N/A   Clear
5:53 PM 77.0 °F - 64.9 °F 66% 29.89 in 10.0 mi East 3.5 mph - N/A   Clear
6:53 PM 73.9 °F - 64.0 °F 71% 29.92 in 10.0 mi East 3.5 mph - N/A   Clear
7:53 PM 73.9 °F - 64.0 °F 71% 29.95 in 10.0 mi NE 3.5 mph - N/A   Clear
8:53 PM 72.0 °F - 64.0 °F 76% 29.98 in 10.0 mi Calm Calm - N/A   Clear
9:53 PM 71.1 °F - 64.0 °F 78% 29.98 in 10.0 mi Variable 3.5 mph - N/A   Clear
10:49 PM 71.6 °F - 64.4 °F 78% 29.96 in 10.0 mi Calm Calm - N/A   Partly Cloudy
10:53 PM 72.0 °F - 64.0 °F 76% 29.99 in 10.0 mi Calm Calm - N/A   Clear
11:53 PM 71.1 °F - 64.0 °F 78% 29.98 in 10.0 mi Calm Calm - N/A   Clear